Weather History for Paynesville, MN

Change the Weather History Date:

Tuesday, September 24, 2013

  Actual Average (KLJF) Record (KLJF)
Temperature  
Mean Temperature 60 °F -  
Max Temperature 71 °F 67 °F 85 °F (1958)
Min Temperature 51 °F 44 °F 30 °F (2000)
Degree Days  
Heating Degree Days 4    
Growing Degree Days 10 (Base 50)    
Moisture  
Dew Point 51 °F    
Average Humidity 76    
Maximum Humidity 95    
Minimum Humidity 47    
Precipitation  
Precipitation 0.00 in - - ()
Sea Level Pressure  
Sea Level Pressure 29.94 in    
Wind  
Wind Speed 5 mph (SE)    
Max Wind Speed 9 mph    
Max Gust Speed -    
Visibility 10 miles    
Events      
Averages and records for this station are not official NWS values.
T = Trace of Precipitation, MM = Missing Value Source: NWS Daily Summary

Daily Weather History Graph

Daily Weather History Graph

Search for Another Location

Airport:

Trip Planner

Search our weather history database for the weather conditions in past years. The results will help you decide how hot, cold, wet, or windy it might be!

Date:

Astronomy

Sep. 24, 2013 Rise Set
Actual Time 7:08 AM CDT 7:12 PM CDT
Civil Twilight 6:39 AM CDT 7:41 PM CDT
Nautical Twilight 6:04 AM CDT 8:15 PM CDT
Astronomical Twilight 5:29 AM CDT 8:51 PM CDT
Moon 10:15 PM CDT (9/24) 12:38 PM CDT (9/24)
Length of Visible Light 13h 02m
Length of Day
12h 03m
Waning Gibbous, 73% of the Moon is Illuminated
Sep 24
Waning Gibbous
Sep 26
Last Quarter
Oct 4
New
Oct 11
First Quarter
Oct 18
Full

Hourly Weather History & Observations

Time (CDT) Temp. Dew Point Humidity Pressure Visibility Wind Dir Wind Speed Gust Speed Precip Events Conditions
12:12 AM 59.9 °F 50.0 °F 70% 29.91 in 10.0 mi SE 6.9 mph - N/A   Clear
12:32 AM 59.0 °F 50.4 °F 73% 29.91 in 10.0 mi SE 9.2 mph - N/A   Clear
12:53 AM 58.5 °F 50.2 °F 74% 29.92 in 10.0 mi SE 8.1 mph - N/A   Clear
1:13 AM 57.9 °F 50.5 °F 76% 29.92 in 10.0 mi SE 8.1 mph - N/A   Clear
1:33 AM 57.4 °F 50.9 °F 79% 29.92 in 10.0 mi ESE 5.8 mph - N/A   Clear
1:53 AM 56.5 °F 50.5 °F 80% 29.92 in 7.0 mi ESE 6.9 mph - N/A   Clear
2:12 AM 56.3 °F 50.7 °F 82% 29.92 in 10.0 mi ESE 5.8 mph - N/A   Clear
2:33 AM 56.1 °F 50.5 °F 82% 29.92 in 10.0 mi SE 8.1 mph - N/A   Clear
2:53 AM 55.9 °F 50.5 °F 82% 29.92 in 10.0 mi SE 9.2 mph - N/A   Clear
3:13 AM 55.6 °F 50.5 °F 83% 29.91 in 7.0 mi SE 6.9 mph - N/A   Clear
3:32 AM 55.4 °F 50.9 °F 85% 29.91 in 7.0 mi SE 8.1 mph - N/A   Clear
3:53 AM 55.4 °F 50.7 °F 84% 29.91 in 10.0 mi SE 6.9 mph - N/A   Clear
4:13 AM 55.0 °F 50.7 °F 85% 29.91 in 10.0 mi SE 6.9 mph - N/A   Clear
4:33 AM 55.0 °F 50.7 °F 85% 29.91 in 10.0 mi SSE 8.1 mph - N/A   Clear
4:52 AM 54.9 °F 50.4 °F 85% 29.91 in 10.0 mi SE 6.9 mph - N/A   Clear
5:13 AM 54.5 °F 50.5 °F 86% 29.91 in 10.0 mi SE 5.8 mph - N/A   Clear
5:33 AM 54.0 °F 50.4 °F 88% 29.91 in 10.0 mi ESE 4.6 mph - N/A   Clear
5:53 AM 53.8 °F 50.4 °F 88% 29.92 in 10.0 mi Calm Calm - N/A   Clear
6:12 AM 54.0 °F 50.5 °F 88% 29.92 in 10.0 mi ESE 3.5 mph - N/A   Clear
6:33 AM 53.4 °F 50.2 °F 89% 29.93 in 10.0 mi Calm Calm - N/A   Clear
6:53 AM 52.7 °F 49.6 °F 89% 29.93 in 10.0 mi East 5.8 mph - N/A   Clear
7:13 AM 52.0 °F 49.3 °F 90% 29.93 in 10.0 mi ESE 4.6 mph - N/A   Clear
7:33 AM 52.2 °F 49.5 °F 91% 29.93 in 10.0 mi East 4.6 mph - N/A   Clear
7:52 AM 53.1 °F 50.0 °F 89% 29.94 in 10.0 mi SE 5.8 mph - N/A   Clear
8:13 AM 54.0 °F 50.0 °F 86% 29.94 in 10.0 mi ESE 4.6 mph - N/A   Clear
8:32 AM 54.0 °F 49.5 °F 85% 29.94 in 10.0 mi SE 5.8 mph - N/A   Clear
8:53 AM 54.5 °F 50.0 °F 85% 29.95 in 10.0 mi ESE 4.6 mph - N/A   Clear
9:13 AM 55.0 °F 50.0 °F 83% 29.95 in 10.0 mi SE 5.8 mph - N/A   Clear
9:33 AM 55.6 °F 50.0 °F 81% 29.95 in 10.0 mi SE 6.9 mph - N/A   Clear
9:53 AM 56.7 °F 50.2 °F 79% 29.96 in 10.0 mi SSE 5.8 mph - N/A   Clear
10:12 AM 58.1 °F 50.4 °F 75% 29.96 in 10.0 mi SE 6.9 mph - N/A   Clear
10:33 AM 59.5 °F 50.7 °F 73% 29.97 in 10.0 mi SSE 5.8 mph - N/A   Clear
10:53 AM 59.7 °F 50.9 °F 73% 29.97 in 10.0 mi SE 5.8 mph - N/A   Clear
11:13 AM 59.0 °F 51.3 °F 75% 29.96 in 10.0 mi ESE 5.8 mph - N/A   Scattered Clouds
11:33 AM 59.5 °F 51.8 °F 76% 29.96 in 10.0 mi SE 4.6 mph - N/A   Mostly Cloudy
11:52 AM 60.4 °F 52.0 °F 74% 29.96 in 10.0 mi ESE 3.5 mph - N/A   Mostly Cloudy
12:13 PM 61.0 °F 51.6 °F 71% 29.97 in 10.0 mi Calm Calm - N/A   Mostly Cloudy
12:33 PM 61.9 °F 51.8 °F 69% 29.97 in 10.0 mi Calm Calm - N/A   Scattered Clouds
12:53 PM 63.5 °F 52.7 °F 68% 29.97 in 10.0 mi Calm Calm - N/A   Scattered Clouds
1:12 PM 63.7 °F 52.7 °F 67% 29.97 in 10.0 mi Calm Calm - N/A   Clear
1:33 PM 65.1 °F 52.5 °F 64% 29.96 in 10.0 mi ESE 3.5 mph - N/A   Clear
1:53 PM 65.3 °F 52.7 °F 64% 29.96 in 10.0 mi ESE 3.5 mph - N/A   Clear
2:12 PM 66.0 °F 52.7 °F 62% 29.95 in 10.0 mi SE 3.5 mph - N/A   Clear
2:33 PM 67.1 °F 53.2 °F 61% 29.95 in 10.0 mi SE 4.6 mph - N/A   Clear
2:53 PM 68.0 °F 52.0 °F 56% 29.94 in 7.0 mi East 4.6 mph - N/A   Clear
3:13 PM 70.2 °F 50.7 °F 50% 29.94 in 7.0 mi SSE 6.9 mph - N/A   Scattered Clouds
3:33 PM 70.7 °F 50.7 °F 49% 29.94 in 7.0 mi SE 8.1 mph - N/A   Clear
3:52 PM 70.9 °F 50.2 °F 48% 29.94 in 10.0 mi SE 6.9 mph - N/A   Clear
4:13 PM 70.7 °F 50.2 °F 48% 29.94 in 10.0 mi SE 8.1 mph - N/A   Clear
4:33 PM 70.9 °F 49.8 °F 47% 29.94 in 10.0 mi SE 5.8 mph - N/A   Clear
4:53 PM 70.7 °F 50.2 °F 48% 29.94 in 10.0 mi SE 8.1 mph - N/A   Clear
5:12 PM 70.7 °F 50.2 °F 48% 29.94 in 10.0 mi SE 6.9 mph - N/A   Clear
5:33 PM 70.5 °F 50.5 °F 49% 29.94 in 10.0 mi SE 5.8 mph - N/A   Clear
5:53 PM 70.2 °F 50.5 °F 50% 29.94 in 10.0 mi SSE 3.5 mph - N/A   Clear
6:13 PM 69.8 °F 50.5 °F 50% 29.94 in 10.0 mi Calm Calm - N/A   Clear
6:33 PM 68.9 °F 51.6 °F 54% 29.94 in 10.0 mi Calm Calm - N/A   Clear
6:52 PM 67.3 °F 51.4 °F 57% 29.94 in 10.0 mi Calm Calm - N/A   Clear
7:12 PM 65.1 °F 52.3 °F 63% 29.94 in 10.0 mi Calm Calm - N/A   Clear
7:33 PM 61.9 °F 52.0 °F 70% 29.94 in 10.0 mi Calm Calm - N/A   Clear
7:52 PM 59.0 °F 53.8 °F 83% 29.94 in 10.0 mi Calm Calm - N/A   Clear
8:12 PM 58.1 °F 53.8 °F 86% 29.94 in 10.0 mi Calm Calm - N/A   Clear
8:33 PM 57.0 °F 53.8 °F 89% 29.94 in 10.0 mi Calm Calm - N/A   Clear
8:53 PM 55.0 °F 52.7 °F 92% 29.95 in 10.0 mi Calm Calm - N/A   Clear
9:13 PM 54.9 °F 51.8 °F 89% 29.94 in 10.0 mi Calm Calm - N/A   Clear
9:32 PM 53.8 °F 51.1 °F 91% 29.95 in 10.0 mi Calm Calm - N/A   Clear
9:53 PM 53.4 °F 51.4 °F 93% 29.94 in 10.0 mi Calm Calm - N/A   Clear
10:12 PM 53.6 °F 51.8 °F 94% 29.94 in 10.0 mi Calm Calm - N/A   Clear
10:32 PM 52.9 °F 51.6 °F 95% 29.94 in 10.0 mi Calm Calm - N/A   Clear
10:53 PM 51.8 °F 49.8 °F 93% 29.94 in 10.0 mi Calm Calm - N/A   Clear
11:12 PM 51.1 °F 49.5 °F 94% 29.94 in 10.0 mi Calm Calm - N/A   Clear
11:33 PM 51.1 °F 49.5 °F 94% 29.94 in 10.0 mi Calm Calm - N/A   Clear
11:52 PM 51.3 °F 50.0 °F 95% 29.94 in 7.0 mi Calm Calm - N/A   Clear